This demonstration page uses our WeatherBlox Daily Observations layout. Learn more.

Left ArrowRight Arrow

38.88101, -77.10428

Hourly Observations for September 10, 2015

Temp ( °F °C ) Dew Point ( °F °C ) Humidity (%) Winds ( mph kmh ) Pressure ( in mb ) Visibility ( mi km ) Precip ( " mm )
12:52 am 00:52 Mostly Cloudy 79 26.1 73 22.8 82 82 S 5 7 29.84 1010 10 16 0.00 0.00
1:52 am 01:52 Mostly Cloudy 78 25.6 73 22.8 85 85 SSW 3 6 29.83 1010 10 16 0.00 0.00
2:08 am 02:08 Mostly Cloudy 79 26 72 22 79 79 S 5 7 29.83 1010 10 16 0.00 0.00
2:52 am 02:52 Cloudy 78 25.6 73 22.8 85 85 SSW 9 15 29.82 1010 10 16 0.00 0.00
3:52 am 03:52 Mostly Clear with Light Rain 77 25 72 22.2 85 85 WSW 12 19 29.82 1010 10 16 0.00 0.03
4:24 am 04:24 Cloudy with Rain 75 24 72 22 89 89 WSW 6 9 29.83 1010 6 10 0.00 0.00
4:52 am 04:52 Cloudy with Light Rain 75 23.9 72 22.2 90 90 NW 9 15 29.80 1009 10 16 0.09 2.29
5:31 am 05:31 Mostly Cloudy 75 24 72 22 89 89 WSW 3 6 29.80 1009 10 16 0.01 0.25
5:52 am 05:52 Mostly Cloudy 75 23.9 72 22.2 90 90 VRB 3 6 29.80 1009 10 16 0.01 0.25
6:52 am 06:52 Mostly Cloudy 75 23.9 71 21.7 88 88 Calm 29.81 1010 10 16 0.00 0.03
7:52 am 07:52 Mostly Cloudy 75 23.9 71 21.7 88 88 WSW 6 9 29.83 1010 10 16 0.00 0.00
8:19 am 08:19 Mostly Cloudy 75 24 72 22 89 89 SW 5 7 29.83 1010 10 16 0.00 0.00
8:52 am 08:52 Cloudy 76 24.4 71 21.7 85 85 W 5 7 29.83 1010 10 16 0.00 0.00
9:40 am 09:40 Mostly Cloudy 77 25 72 22 83 83 SE 3 6 29.83 1010 10 16 0.00 0.00
9:52 am 09:52 Mostly Cloudy 77 25 72 22.2 85 85 S 6 9 29.82 1010 10 16 0.00 0.00
10:33 am 10:33 Mostly Cloudy 79 26 73 23 84 84 SSE 5 7 29.80 1009 10 16 0.00 0.00
10:45 am 10:45 Mostly Cloudy 81 27 72 22 74 74 SSW 3 6 29.80 1009 10 16 0.00 0.00
10:52 am 10:52 Mostly Cloudy 81 27.2 72 22.2 74 74 Calm 29.81 1009 10 16 0.00 0.00
11:31 am 11:31 Mostly Cloudy 82 28 72 22 70 70 SSW 5 7 29.80 1009 10 16 0.00 0.00
12:52 pm 12:52 Cloudy 84 28.9 72 22.2 67 67 WSW 9 15 29.77 1008 10 16 0.00 0.00
1:52 pm 13:52 Cloudy 82 27.8 71 21.7 69 69 WNW 14 22 29.76 1008 10 16 0.00 0.00
2:06 pm 14:06 Cloudy 79 26 70 21 74 74 NW 12 19 29.77 1008 10 16 0.00 0.00
2:52 pm 14:52 Cloudy with Light Rain 77 25 69 20.6 77 77 NW 14 22 29.75 1008 10 16 0.00 0.03
2:59 pm 14:59 Cloudy with Light Rain 75 24 70 21 83 83 NNW 12 19 29.77 1008 10 16 0.00 0.03
3:39 pm 15:39 Mostly Cloudy 75 24 70 21 83 83 NNW 14 22 29.74 1007 10 16 0.01 0.25
3:52 pm 15:52 Mostly Cloudy 76 24.4 70 21.1 82 82 N 16 26 29.74 1007 10 16 0.01 0.25
4:34 pm 16:34 Cloudy 79 26 70 21 74 74 N 12 19 29.74 1007 10 16 0.00 0.00
4:52 pm 16:52 Cloudy 78 25.6 69 20.6 74 74 N 8 13 29.73 1007 10 16 0.00 0.00
5:52 pm 17:52 Cloudy 75 23.9 67 19.4 76 76 NNW 16 26 29.73 1007 10 16 0.00 0.00
6:52 pm 18:52 Cloudy 73 22.8 65 18.3 76 76 NNW 16 26 29.74 1007 10 16 0.00 0.00
7:52 pm 19:52 Cloudy 72 22.2 64 17.8 76 76 N 12 19 29.75 1007 10 16 0.00 0.00
8:52 pm 20:52 Cloudy 72 22.2 64 17.8 76 76 NNW 14 22 29.77 1008 10 16 0.00 0.00
9:52 pm 21:52 Cloudy 71 21.7 64 17.8 79 79 NNW 13 20 29.78 1008 10 16 0.00 0.00
10:52 pm 22:52 Cloudy 70 21.1 63 17.2 79 79 NNW 14 22 29.77 1008 10 16 0.00 0.03
11:15 pm 23:15 Cloudy 70 21 63 17 78 78 NNW 15 24 29.77 1008 10 16 0.00 0.00
11:52 pm 23:52 Cloudy 70 21.1 62 16.7 76 76 NNW 14 22 29.78 1008 10 16 0.00 0.00

Powered by AerisWeather